Time,TemperatureF,DewpointF,PressureIn,WindDirection,WindDirectionDegrees,WindSpeedMPH,WindSpeedGustMPH,Humidity,HourlyPrecipIn,Conditions,Clouds,dailyrainin,SoftwareType,DateUTC
2013-03-02 00:01:00,30.0,20.0,30.44,North,356,1.0,6.0,65,0.00,,,0.00,,2013-03-02 06:01:00,
2013-03-02 00:11:00,30.0,20.0,30.44,North,356,1.0,6.0,65,0.00,,,0.00,,2013-03-02 06:11:00,
2013-03-02 00:21:00,30.0,20.0,30.44,NNW,339,0.0,9.0,65,0.00,,,0.00,,2013-03-02 06:21:00,
2013-03-02 00:31:00,30.0,20.0,30.44,NNE,26,1.0,8.0,66,0.00,,,0.00,,2013-03-02 06:31:00,
2013-03-02 00:41:00,30.0,20.0,30.44,NNE,26,1.0,8.0,66,0.00,,,0.00,,2013-03-02 06:41:00,
2013-03-02 00:51:00,30.0,20.0,30.44,NE,34,4.0,7.0,65,0.00,,,0.00,,2013-03-02 06:51:00,
2013-03-02 01:01:00,30.0,18.0,30.44,North,11,2.0,5.0,61,0.00,,,0.00,,2013-03-02 07:01:00,
2013-03-02 01:11:00,30.0,19.0,30.44,NNW,329,1.0,7.0,62,0.00,,,0.00,,2013-03-02 07:11:00,
2013-03-02 01:21:00,30.0,19.0,30.44,NNW,329,1.0,7.0,62,0.00,,,0.00,,2013-03-02 07:21:00,
2013-03-02 01:32:00,30.0,18.0,30.44,NW,304,1.0,14.0,60,0.00,,,0.00,,2013-03-02 07:32:00,
2013-03-02 01:42:00,30.0,18.0,30.44,NW,304,1.0,14.0,60,0.00,,,0.00,,2013-03-02 07:42:00,
2013-03-02 01:52:00,30.0,18.0,30.44,NW,304,1.0,14.0,60,0.00,,,0.00,,2013-03-02 07:52:00,
2013-03-02 02:01:00,30.0,18.0,30.45,NNW,345,3.0,7.0,60,0.00,,,0.00,,2013-03-02 08:01:00,
2013-03-02 02:11:00,30.0,18.0,30.45,NNW,345,3.0,7.0,60,0.00,,,0.00,,2013-03-02 08:11:00,
2013-03-02 02:22:00,30.0,18.0,30.44,NW,326,3.0,8.0,60,0.00,,,0.00,,2013-03-02 08:22:00,
2013-03-02 02:32:00,30.0,19.0,30.44,North,360,2.0,7.0,62,0.00,,,0.00,,2013-03-02 08:32:00,
2013-03-02 02:42:00,30.0,19.0,30.44,North,360,2.0,7.0,62,0.00,,,0.00,,2013-03-02 08:42:00,
2013-03-02 02:52:00,30.0,18.0,30.44,NNE,13,3.0,12.0,61,0.00,,,0.00,,2013-03-02 08:52:00,
2013-03-02 03:01:00,30.0,19.0,30.44,NNE,12,2.0,5.0,62,0.00,,,0.00,,2013-03-02 09:01:00,
2013-03-02 03:11:00,30.0,19.0,30.43,NNW,339,2.0,8.0,63,0.00,,,0.00,,2013-03-02 09:11:00,
2013-03-02 03:21:00,30.0,19.0,30.43,NNW,339,2.0,8.0,63,0.00,,,0.00,,2013-03-02 09:21:00,
2013-03-02 03:32:00,29.0,18.0,30.44,North,350,0.0,6.0,63,0.00,,,0.00,,2013-03-02 09:32:00,
2013-03-02 03:42:00,29.0,18.0,30.44,North,350,0.0,6.0,63,0.00,,,0.00,,2013-03-02 09:42:00,
2013-03-02 03:52:00,29.0,18.0,30.43,NW,318,3.0,8.0,62,0.00,,,0.00,,2013-03-02 09:52:00,
2013-03-02 04:01:00,29.0,18.0,30.43,NW,318,3.0,8.0,62,0.00,,,0.00,,2013-03-02 10:01:00,
2013-03-02 04:15:00,29.0,18.0,30.43,NW,318,3.0,8.0,62,0.00,,,0.00,,2013-03-02 10:15:00,
2013-03-02 04:22:00,29.0,18.0,30.43,NE,43,2.0,8.0,62,0.00,,,0.00,,2013-03-02 10:22:00,
2013-03-02 04:31:00,29.0,18.0,30.43,North,360,2.0,9.0,63,0.00,,,0.00,,2013-03-02 10:31:00,
2013-03-02 04:43:00,29.0,18.0,30.43,North,360,2.0,9.0,63,0.00,,,0.00,,2013-03-02 10:43:00,
2013-03-02 04:52:00,29.0,18.0,30.43,NNW,331,1.0,5.0,64,0.00,,,0.00,,2013-03-02 10:52:00,
2013-03-02 05:01:00,29.0,18.0,30.44,NW,309,3.0,11.0,64,0.00,,,0.00,,2013-03-02 11:01:00,
2013-03-02 05:11:00,29.0,18.0,30.44,NW,309,3.0,11.0,64,0.00,,,0.00,,2013-03-02 11:11:00,
2013-03-02 05:21:00,29.0,18.0,30.45,NW,321,1.0,5.0,64,0.00,,,0.00,,2013-03-02 11:21:00,
2013-03-02 05:32:00,29.0,18.0,30.45,NNW,328,2.0,7.0,64,0.00,,,0.00,,2013-03-02 11:32:00,
2013-03-02 05:42:00,29.0,18.0,30.45,NNW,328,2.0,7.0,64,0.00,,,0.00,,2013-03-02 11:42:00,
2013-03-02 05:52:00,29.0,19.0,30.45,WNW,300,0.0,6.0,65,0.00,,,0.00,,2013-03-02 11:52:00,
2013-03-02 06:02:00,29.0,18.0,30.45,North,350,1.0,7.0,64,0.00,,,0.00,,2013-03-02 12:02:00,
2013-03-02 06:11:00,29.0,18.0,30.45,North,350,1.0,7.0,64,0.00,,,0.00,,2013-03-02 12:11:00,
2013-03-02 06:21:00,29.0,19.0,30.45,NW,323,0.0,4.0,66,0.00,,,0.00,,2013-03-02 12:21:00,
2013-03-02 06:32:00,29.0,19.0,30.45,NW,323,0.0,4.0,66,0.00,,,0.00,,2013-03-02 12:32:00,
2013-03-02 06:43:00,29.0,19.0,30.45,NW,323,0.0,4.0,66,0.00,,,0.00,,2013-03-02 12:43:00,
2013-03-02 06:53:00,28.0,19.0,30.46,NW,325,0.0,2.0,68,0.00,,,0.00,,2013-03-02 12:53:00,
2013-03-02 07:01:00,27.0,18.0,30.47,NW,317,0.0,2.0,69,0.00,,,0.00,,2013-03-02 13:01:00,
2013-03-02 07:11:00,27.0,18.0,30.47,NW,317,0.0,2.0,69,0.00,,,0.00,,2013-03-02 13:11:00,
2013-03-02 07:22:00,27.0,18.0,30.47,NW,321,1.0,5.0,69,0.00,,,0.00,,2013-03-02 13:22:00,
2013-03-02 07:32:00,26.0,18.0,30.47,NW,307,0.0,2.0,70,0.00,,,0.00,,2013-03-02 13:32:00,
2013-03-02 07:42:00,26.0,18.0,30.47,NW,307,0.0,2.0,70,0.00,,,0.00,,2013-03-02 13:42:00,
2013-03-02 07:52:00,27.0,19.0,30.47,NNW,339,0.0,2.0,70,0.00,,,0.00,,2013-03-02 13:52:00,
2013-03-02 08:01:00,27.0,19.0,30.48,NW,312,0.0,3.0,70,0.00,,,0.00,,2013-03-02 14:01:00,
2013-03-02 08:11:00,27.0,19.0,30.48,NW,312,0.0,3.0,70,0.00,,,0.00,,2013-03-02 14:11:00,
2013-03-02 08:21:00,28.0,20.0,30.49,NNW,334,1.0,4.0,71,0.00,,,0.00,,2013-03-02 14:21:00,
2013-03-02 08:32:00,28.0,20.0,30.49,NNW,333,1.0,7.0,70,0.00,,,0.00,,2013-03-02 14:32:00,
2013-03-02 08:42:00,28.0,20.0,30.49,NNW,333,1.0,7.0,70,0.00,,,0.00,,2013-03-02 14:42:00,
2013-03-02 08:52:00,28.0,19.0,30.50,NNE,33,2.0,8.0,69,0.00,,,0.00,,2013-03-02 14:52:00,
2013-03-02 09:02:00,29.0,19.0,30.50,NNE,33,5.0,9.0,67,0.00,,,0.00,,2013-03-02 15:02:00,
2013-03-02 09:11:00,29.0,19.0,30.50,NNE,33,5.0,9.0,67,0.00,,,0.00,,2013-03-02 15:11:00,
2013-03-02 09:21:00,30.0,20.0,30.50,NNE,16,2.0,8.0,66,0.00,,,0.00,,2013-03-02 15:21:00,
2013-03-02 09:31:00,30.0,19.0,30.50,NNE,13,2.0,6.0,63,0.00,,,0.00,,2013-03-02 15:31:00,
2013-03-02 09:42:00,30.0,19.0,30.50,NNE,13,2.0,6.0,63,0.00,,,0.00,,2013-03-02 15:42:00,
2013-03-02 09:52:00,31.0,20.0,30.50,NNW,333,2.0,9.0,62,0.00,,,0.00,,2013-03-02 15:52:00,
2013-03-02 10:01:00,31.0,20.0,30.50,West,279,2.0,12.0,62,0.00,,,0.00,,2013-03-02 16:01:00,
2013-03-02 10:11:00,31.0,20.0,30.50,West,279,2.0,12.0,62,0.00,,,0.00,,2013-03-02 16:11:00,
2013-03-02 10:21:00,32.0,20.0,30.49,NE,36,3.0,9.0,60,0.00,,,0.00,,2013-03-02 16:21:00,
2013-03-02 10:31:00,33.0,20.0,30.48,North,351,1.0,6.0,58,0.00,,,0.00,,2013-03-02 16:31:00,
2013-03-02 10:42:00,33.0,20.0,30.48,North,351,1.0,6.0,58,0.00,,,0.00,,2013-03-02 16:42:00,
2013-03-02 10:52:00,33.0,19.0,30.48,NNW,341,0.0,6.0,57,0.00,,,0.00,,2013-03-02 16:52:00,
2013-03-02 11:01:00,34.0,20.0,30.49,ENE,67,2.0,6.0,56,0.00,,,0.00,,2013-03-02 17:01:00,
2013-03-02 11:11:00,34.0,20.0,30.49,ENE,67,2.0,6.0,56,0.00,,,0.00,,2013-03-02 17:11:00,
2013-03-02 11:21:00,35.0,20.0,30.48,NNW,328,2.0,9.0,54,0.00,,,0.00,,2013-03-02 17:21:00,
2013-03-02 11:32:00,35.0,20.0,30.48,WNW,297,1.0,4.0,54,0.00,,,0.00,,2013-03-02 17:32:00,
2013-03-02 11:42:00,35.0,20.0,30.48,WNW,297,1.0,4.0,54,0.00,,,0.00,,2013-03-02 17:42:00,
2013-03-02 11:52:00,36.0,20.0,30.48,West,269,1.0,6.0,51,0.00,,,0.00,,2013-03-02 17:52:00,
2013-03-02 12:01:00,36.0,19.0,30.47,NNE,26,3.0,7.0,50,0.00,,,0.00,,2013-03-02 18:01:00,
2013-03-02 12:11:00,36.0,19.0,30.47,NNE,26,3.0,7.0,50,0.00,,,0.00,,2013-03-02 18:11:00,
2013-03-02 12:22:00,37.0,20.0,30.47,NE,40,3.0,8.0,50,0.00,,,0.00,,2013-03-02 18:22:00,
2013-03-02 12:32:00,38.0,21.0,30.46,NE,41,1.0,4.0,50,0.00,,,0.00,,2013-03-02 18:32:00,
2013-03-02 12:42:00,38.0,21.0,30.46,NE,41,1.0,4.0,50,0.00,,,0.00,,2013-03-02 18:42:00,
2013-03-02 12:52:00,39.0,20.0,30.46,NNE,18,2.0,6.0,47,0.00,,,0.00,,2013-03-02 18:52:00,
2013-03-02 13:01:00,39.0,21.0,30.45,NNW,340,0.0,6.0,48,0.00,,,0.00,,2013-03-02 19:01:00,
2013-03-02 13:11:00,39.0,21.0,30.45,NNW,340,0.0,6.0,48,0.00,,,0.00,,2013-03-02 19:11:00,
2013-03-02 13:21:00,41.0,22.0,30.43,WNW,287,1.0,4.0,47,0.00,,,0.00,,2013-03-02 19:21:00,
2013-03-02 13:32:00,41.0,20.0,30.43,NE,37,3.0,8.0,42,0.00,,,0.00,,2013-03-02 19:32:00,
2013-03-02 13:42:00,41.0,20.0,30.43,NE,37,3.0,8.0,42,0.00,,,0.00,,2013-03-02 19:42:00,
2013-03-02 13:52:00,42.0,20.0,30.42,NW,307,1.0,6.0,41,0.00,,,0.00,,2013-03-02 19:52:00,
2013-03-02 14:01:00,43.0,21.0,30.41,ENE,68,0.0,5.0,41,0.00,,,0.00,,2013-03-02 20:01:00,
2013-03-02 14:11:00,43.0,21.0,30.41,ENE,68,0.0,5.0,41,0.00,,,0.00,,2013-03-02 20:11:00,
2013-03-02 14:22:00,42.0,19.0,30.41,WNW,284,1.0,6.0,40,0.00,,,0.00,,2013-03-02 20:22:00,
2013-03-02 14:32:00,44.0,19.0,30.41,NNW,340,1.0,5.0,37,0.00,,,0.00,,2013-03-02 20:32:00,
2013-03-02 14:42:00,44.0,19.0,30.41,NNW,340,1.0,5.0,37,0.00,,,0.00,,2013-03-02 20:42:00,
2013-03-02 14:52:00,43.0,19.0,30.40,NW,304,0.0,6.0,38,0.00,,,0.00,,2013-03-02 20:52:00,
2013-03-02 15:02:00,44.0,19.0,30.40,NW,314,1.0,6.0,36,0.00,,,0.00,,2013-03-02 21:02:00,
2013-03-02 15:11:00,44.0,19.0,30.40,NW,314,1.0,6.0,36,0.00,,,0.00,,2013-03-02 21:11:00,
2013-03-02 15:22:00,44.0,18.0,30.40,NE,51,3.0,6.0,35,0.00,,,0.00,,2013-03-02 21:22:00,
2013-03-02 15:32:00,44.0,19.0,30.39,North,6,1.0,5.0,37,0.00,,,0.00,,2013-03-02 21:32:00,
2013-03-02 15:42:00,44.0,19.0,30.39,North,6,1.0,5.0,37,0.00,,,0.00,,2013-03-02 21:42:00,
2013-03-02 15:52:00,45.0,20.0,30.38,NE,52,1.0,6.0,36,0.00,,,0.00,,2013-03-02 21:52:00,
2013-03-02 16:01:00,45.0,20.0,30.38,ENE,76,1.0,4.0,36,0.00,,,0.00,,2013-03-02 22:01:00,
2013-03-02 16:11:00,45.0,20.0,30.38,ENE,76,1.0,4.0,36,0.00,,,0.00,,2013-03-02 22:11:00,
2013-03-02 16:22:00,45.0,21.0,30.38,NNW,341,0.0,4.0,38,0.00,,,0.00,,2013-03-02 22:22:00,
2013-03-02 16:32:00,45.0,20.0,30.37,North,356,0.0,5.0,36,0.00,,,0.00,,2013-03-02 22:32:00,
2013-03-02 16:42:00,45.0,20.0,30.37,North,356,0.0,5.0,36,0.00,,,0.00,,2013-03-02 22:42:00,
2013-03-02 16:52:00,45.0,20.0,30.37,NNE,32,0.0,4.0,36,0.00,,,0.00,,2013-03-02 22:52:00,
2013-03-02 17:01:00,46.0,21.0,30.37,NW,324,1.0,3.0,36,0.00,,,0.00,,2013-03-02 23:01:00,
2013-03-02 17:11:00,45.0,20.0,30.36,NW,320,0.0,4.0,36,0.00,,,0.00,,2013-03-02 23:11:00,
2013-03-02 17:21:00,45.0,20.0,30.36,NW,320,0.0,4.0,36,0.00,,,0.00,,2013-03-02 23:21:00,
2013-03-02 17:32:00,45.0,20.0,30.36,North,352,1.0,4.0,36,0.00,,,0.00,,2013-03-02 23:32:00,
2013-03-02 17:42:00,45.0,20.0,30.36,North,352,1.0,4.0,36,0.00,,,0.00,,2013-03-02 23:42:00,
2013-03-02 17:52:00,45.0,20.0,30.36,North,352,0.0,1.0,37,0.00,,,0.00,,2013-03-02 23:52:00,
2013-03-02 18:02:00,44.0,19.0,30.36,ENE,77,0.0,2.0,36,0.00,,,0.00,,2013-03-03 00:02:00,
2013-03-02 18:11:00,44.0,19.0,30.36,ENE,77,0.0,2.0,36,0.00,,,0.00,,2013-03-03 00:11:00,
2013-03-02 18:22:00,44.0,19.0,30.36,ENE,68,0.0,2.0,37,0.00,,,0.00,,2013-03-03 00:22:00,
2013-03-02 18:32:00,43.0,20.0,30.36,East,84,0.0,2.0,39,0.00,,,0.00,,2013-03-03 00:32:00,
2013-03-02 18:42:00,43.0,20.0,30.36,East,84,0.0,2.0,39,0.00,,,0.00,,2013-03-03 00:42:00,
2013-03-02 18:52:00,42.0,20.0,30.35,NE,48,0.0,1.0,41,0.00,,,0.00,,2013-03-03 00:52:00,
2013-03-02 19:01:00,41.0,20.0,30.35,ESE,117,0.0,0.0,43,0.00,,,0.00,,2013-03-03 01:01:00,
2013-03-02 19:11:00,41.0,20.0,30.35,ESE,117,0.0,0.0,43,0.00,,,0.00,,2013-03-03 01:11:00,
2013-03-02 19:21:00,40.0,20.0,30.35,ESE,117,0.0,1.0,45,0.00,,,0.00,,2013-03-03 01:21:00,
2013-03-02 19:31:00,40.0,21.0,30.35,ESE,117,0.0,0.0,47,0.00,,,0.00,,2013-03-03 01:31:00,
2013-03-02 19:41:00,40.0,21.0,30.35,ESE,117,0.0,0.0,47,0.00,,,0.00,,2013-03-03 01:41:00,
2013-03-02 19:52:00,39.0,20.0,30.35,ESE,117,0.0,0.0,47,0.00,,,0.00,,2013-03-03 01:52:00,
2013-03-02 20:01:00,39.0,20.0,30.35,ESE,121,0.0,1.0,47,0.00,,,0.00,,2013-03-03 02:01:00,
2013-03-02 20:11:00,39.0,20.0,30.35,ESE,121,0.0,1.0,47,0.00,,,0.00,,2013-03-03 02:11:00,
2013-03-02 20:21:00,38.0,21.0,30.35,ESE,120,0.0,1.0,49,0.00,,,0.00,,2013-03-03 02:21:00,
2013-03-02 20:31:00,37.0,20.0,30.35,ESE,120,0.0,0.0,50,0.00,,,0.00,,2013-03-03 02:31:00,
2013-03-02 20:41:00,37.0,20.0,30.35,ESE,120,0.0,0.0,50,0.00,,,0.00,,2013-03-03 02:41:00,
2013-03-02 20:52:00,36.0,22.0,30.35,ESE,120,0.0,0.0,56,0.00,,,0.00,,2013-03-03 02:52:00,
2013-03-02 21:01:00,35.0,21.0,30.35,ESE,120,0.0,0.0,57,0.00,,,0.00,,2013-03-03 03:01:00,
2013-03-02 21:11:00,35.0,21.0,30.35,ESE,120,0.0,0.0,57,0.00,,,0.00,,2013-03-03 03:11:00,
2013-03-02 21:21:00,34.0,21.0,30.35,ESE,120,0.0,1.0,59,0.00,,,0.00,,2013-03-03 03:21:00,
2013-03-02 21:31:00,34.0,21.0,30.35,ESE,121,0.0,1.0,58,0.00,,,0.00,,2013-03-03 03:31:00,
2013-03-02 21:41:00,34.0,21.0,30.35,ESE,121,0.0,1.0,58,0.00,,,0.00,,2013-03-03 03:41:00,
2013-03-02 21:52:00,34.0,22.0,30.35,ESE,121,0.0,0.0,60,0.00,,,0.00,,2013-03-03 03:52:00,
2013-03-02 22:01:00,33.0,21.0,30.34,ESE,121,0.0,0.0,61,0.00,,,0.00,,2013-03-03 04:01:00,
2013-03-02 22:11:00,33.0,21.0,30.34,ESE,121,0.0,0.0,61,0.00,,,0.00,,2013-03-03 04:11:00,
2013-03-02 22:21:00,33.0,21.0,30.34,ESE,121,0.0,0.0,61,0.00,,,0.00,,2013-03-03 04:21:00,
2013-03-02 22:31:00,33.0,21.0,30.33,ESE,122,0.0,0.0,62,0.00,,,0.00,,2013-03-03 04:31:00,
2013-03-02 22:41:00,33.0,21.0,30.33,ESE,122,0.0,0.0,62,0.00,,,0.00,,2013-03-03 04:41:00,
2013-03-02 22:52:00,32.0,22.0,30.33,ESE,121,0.0,0.0,65,0.00,,,0.00,,2013-03-03 04:52:00,
2013-03-02 23:02:00,31.0,21.0,30.33,ESE,121,0.0,0.0,65,0.00,,,0.00,,2013-03-03 05:02:00,
2013-03-02 23:11:00,31.0,21.0,30.33,ESE,121,0.0,0.0,65,0.00,,,0.00,,2013-03-03 05:11:00,
2013-03-02 23:22:00,31.0,22.0,30.32,ESE,122,0.0,0.0,68,0.00,,,0.00,,2013-03-03 05:22:00,
2013-03-02 23:32:00,31.0,21.0,30.32,ESE,121,0.0,0.0,67,0.00,,,0.00,,2013-03-03 05:32:00,
2013-03-02 23:42:00,31.0,21.0,30.32,ESE,121,0.0,0.0,67,0.00,,,0.00,,2013-03-03 05:42:00,
2013-03-02 23:52:00,31.0,21.0,30.32,ESE,121,0.0,0.0,67,0.00,,,0.00,,2013-03-03 05:52:00,